EW3517 Weather Reports


time (UTC)temp
C
wind
direction
speed
KPH
gust
KPH
rain 1hr
cm
rain 24hr
cm
rain mn
cm
humidity
%
barometer
mb
20260507031552 13 22 0.0 0.0 0.00 0.00 0.00 59 1016.6
20260507030048 13 22 0.0 0.0 0.00 0.00 0.00 58 1016.5
20260507024548 13 22 0.0 0.0 0.00 0.00 0.00 56 1016.2
20260507023048 14 22 0.0 0.0 0.00 0.00 0.00 55 1016.1
20260507021547 14 23 0.0 0.0 0.00 0.00 0.00 53 1015.9
20260507020046 15 23 0.0 0.0 0.00 0.00 0.00 52 1015.7
20260507014551 15 39 0.0 0.0 0.00 0.00 0.00 50 1015.4
20260507013051 16 22 0.0 0.0 0.00 0.00 0.00 49 1015.3
20260507011545 16 65 0.0 0.0 0.00 0.00 0.00 48 1015.2
20260507010054 16 5 0.0 0.0 0.00 0.00 0.00 47 1015.2
20260507004546 16 22 0.0 0.0 0.00 0.00 0.00 47 1015.1
20260507003042 17 30 0.0 0.0 0.00 0.00 0.00 47 1014.9
20260507001542 17 54 0.0 1.6 0.00 0.00 0.00 46 1014.9
20260507000040 18 44 0.0 0.0 0.00 0.00 0.00 46 1014.7
20260506234539 18 22 0.0 0.0 0.00 0.00 0.00 46 1014.6
20260506233054 18 123 0.0 0.0 0.00 0.00 0.00 45 1014.5
20260506231540 18 61 0.0 0.0 0.00 0.00 0.00 45 1014.3
20260506230036 18 34 0.0 0.0 0.00 0.00 0.00 44 1014.2
20260506224536 18 27 0.0 0.0 0.00 0.00 0.00 46 1014.1
20260506223036 18 32 0.0 0.0 0.00 0.00 0.00 45 1013.9
20260506221535 18 107 0.0 0.0 0.00 0.00 0.00 46 1013.6
20260506220032 18 5 0.0 0.0 0.00 0.00 0.00 45 1013.7
20260506214531 18 79 0.0 0.0 0.00 0.00 0.00 44 1013.8
20260506213028 18 11 0.0 1.6 0.00 0.00 0.00 46 1013.9
20260506211529 18 5 0.0 0.0 0.00 0.00 0.00 46 1014.2
20260506210034 18 146 0.0 0.0 0.00 0.00 0.00 48 1014.2
20260506204523 17 5 0.0 0.0 0.00 0.00 0.00 47 1014.4
20260506203020 17 88 0.0 0.0 0.00 0.00 0.00 51 1014.6
20260506201519 17 52 0.0 0.0 0.00 0.00 0.00 51 1014.8
20260506200032 17 26 0.0 0.0 0.00 0.00 0.00 52 1014.8
20260506194514 16 41 0.0 0.0 0.00 0.00 0.00 52 1014.9
20260506193011 16 58 0.0 0.0 0.00 0.00 0.00 54 1015.1
20260506191511 16 17 0.0 0.0 0.00 0.00 0.00 55 1015.2
20260506190009 16 349 0.0 0.0 0.00 0.00 0.00 55 1015.5
20260506184510 16 31 0.0 0.0 0.00 0.00 0.00 54 1015.3
20260506183009 15 13 0.0 0.0 0.00 0.00 0.00 55 1015.5
20260506181513 15 11 0.0 0.0 0.00 0.00 0.00 55 1015.7
20260506180016 15 5 0.0 0.0 0.00 0.00 0.00 55 1015.8
20260506174507 16 58 0.0 0.0 0.00 0.00 0.00 53 1015.9
20260506173006 16 107 0.0 1.6 0.00 0.00 0.00 54 1016.1
20260506171505 16 118 0.0 0.0 0.00 0.00 0.00 55 1016.1
20260506170002 15 181 0.0 0.0 0.00 0.00 0.00 55 1016.2
20260506164623 15 5 0.0 0.0 0.00 0.00 0.00 55 1016.2
20260506163105 15 111 0.0 0.0 0.00 0.00 0.00 57 1016.4
20260506161555 14 135 0.0 0.0 0.00 0.00 0.00 58 1016.5
20260506160105 13 96 0.0 0.0 0.00 0.00 0.00 60 1016.1
20260506154551 12 338 0.0 0.0 0.00 0.00 0.00 62 1016.2
20260506153045 12 35 0.0 1.6 0.00 0.00 0.00 61 1016.1
20260506151542 12 20 0.0 0.0 0.00 0.00 0.00 65 1016.1
20260506150037 11 49 0.0 0.0 0.00 0.00 0.00 68 1016.0
20260506144534 11 91 0.0 0.0 0.00 0.00 0.00 73 1015.7
20260506143034 10 23 0.0 0.0 0.00 0.00 0.00 75 1015.5
20260506141530 10 25 0.0 0.0 0.00 0.00 0.00 75 1015.4
20260506140029 10 79 0.0 0.0 0.00 0.00 0.00 76 1015.5
20260506134525 10 58 0.0 0.0 0.00 0.00 0.00 79 1015.5
20260506133026 9 17 0.0 0.0 0.00 0.00 0.00 79 1015.7
20260506131532 9 5 0.0 0.0 0.00 0.00 0.00 80 1015.5
20260506130022 9 19 0.0 0.0 0.00 0.00 0.00 81 1015.3
20260506124526 9 81 0.0 0.0 0.00 0.00 0.00 82 1015.4
20260506123021 9 49 0.0 0.0 0.00 0.00 0.00 82 1014.8
20260506121517 9 124 0.0 0.0 0.00 0.00 0.00 82 1014.6
20260506120017 8 32 0.0 0.0 0.00 0.00 0.00 82 1014.1
20260506114515 8 9 0.0 0.0 0.00 0.00 0.00 82 1014.2
20260506113015 8 82 0.0 0.0 0.00 0.00 0.00 82 1014.0
20260506111514 9 341 0.0 0.0 0.00 0.00 0.00 81 1013.7
20260506110012 9 360 0.0 0.0 0.00 0.00 0.00 80 1013.5
20260506104510 9 26 0.0 0.0 0.00 0.00 0.00 79 1014.2
20260506103022 9 5 0.0 0.0 0.00 0.00 0.00 79 1014.6
20260506101507 9 23 0.0 0.0 0.00 0.00 0.00 78 1014.1
20260506100005 9 36 0.0 0.0 0.00 0.00 0.00 78 1014.1
20260506094502 9 9 0.0 0.0 0.00 0.00 0.00 78 1013.5
20260506093059 9 10 0.0 0.0 0.00 0.00 0.00 78 1013.0
20260506091558 9 49 0.0 0.0 0.00 0.00 0.00 77 1012.7
20260506090056 9 28 0.0 0.0 0.00 0.00 0.00 76 1012.6
20260506084555 9 5 0.0 0.0 0.00 0.00 0.00 75 1012.6
20260506083053 9 55 0.0 0.0 0.00 0.00 0.00 75 1012.2
20260506081552 9 5 0.0 0.0 0.00 0.00 0.00 74 1011.7
20260506073048 9 11 0.0 0.0 0.00 0.00 0.00 73 1011.2
20260506071550 10 15 0.0 0.0 0.00 0.00 0.00 73 1010.9
20260506070104 10 28 0.0 0.0 0.00 0.00 0.00 73 1010.9
20260506061540 10 14 0.0 0.0 0.00 0.00 0.00 72 1011.0
20260506044544 10 40 0.0 0.0 0.00 0.00 0.00 70 1010.8
20260506043032 10 44 0.0 0.0 0.00 0.00 0.00 72 1010.9
20260506041530 10 11 0.0 0.0 0.00 0.00 0.00 72 1010.8
20260506040028 10 11 0.0 0.0 0.00 0.00 0.00 74 1010.7
20260506034528 10 17 0.0 0.0 0.00 0.00 0.00 76 1010.6
20260506033024 9 360 0.0 0.0 0.00 0.00 0.00 79 1010.2